Home   Weather   Bantam   Past weeks

Flag for Cocos Islands Past Weather in Bantam, Cocos Islands — Yesterday and Last 2 Weeks

79 °F

Mostly cloudy.

Feels Like: 81 °F
Forecast: 78 / 82 °F
Wind: 16 mph from Southeast

Location: Cocos Island Airport

Current Time: Oct 23, 2016 at 8:51:47 PM

Latest Report: Oct 23, 2016 at 8:30 PM

Visibility: N/A

Pressure: 29.92 "Hg

Humidity: 65%

Dew Point: 66 °F

Location of BantamLocation

Past Weather in Bantam — Graph


Bantam Temperature Yesterday

Maximum temperature yesterday: 82 °F (at 8:00 AM)
Minimum temperature yesterday: 77 °F (at 7:00 PM)
Average temperature yesterday: 80 °F

High & Low Weather Summary for the Past Weeks

High86 °F (Oct 13, 11:00 AM)100% (Oct 16, 7:30 PM)30.01 "Hg (Oct 16, 7:30 PM)
Low75 °F (Oct 9, 7:30 AM)55% (Oct 15, 10:30 AM)29.68 "Hg (Oct 17, 3:31 AM)
Average80 °F74%29.87 "Hg
* Reported Oct 8 10:30 PM — Oct 23 7:30 PM, Bantam, Weather by CustomWeather, © 2016

Note: Actual official high and low records may vary slightly from our data, if they occured in-between our weather recording intervals... More about our weather records


Bantam Weather History for the Previous 24 Hours

Scroll right to see more
Time TempWeatherWind HumidityBarometerVisibility
7:30 PM
Sun, Oct 23
79 °FMostly cloudy.17 mph70%29.89 "HgN/A
7:00 PM79 °FMostly cloudy.16 mph70%29.89 "HgN/A
6:30 PM79 °FCloudy.16 mph70%29.89 "HgN/A
6:00 PM79 °FCloudy.15 mph70%29.89 "HgN/A
5:30 PM79 °FCloudy.17 mph70%29.86 "HgN/A
5:00 PM79 °FMostly cloudy.16 mph70%29.86 "HgN/A
4:30 PM81 °FBroken clouds.16 mph66%29.86 "HgN/A
4:00 PM81 °FMore clouds than sun.16 mph66%29.86 "HgN/A
3:30 PM81 °FBroken clouds.16 mph66%29.86 "HgN/A
3:00 PM82 °FBroken clouds.15 mph62%29.86 "HgN/A
2:30 PM81 °FBroken clouds.16 mph66%29.86 "HgN/A
1:30 PM82 °FSunny.16 mph62%29.89 "HgN/A
12:30 PM82 °FSunny.16 mph58%29.89 "HgN/A
12:00 PM82 °FWarm.17 mph62%29.89 "HgN/A
11:30 AM82 °FSunny.17 mph58%29.89 "HgN/A
10:30 AM84 °FSunny.17 mph55%29.92 "HgN/A
10:00 AM84 °FSunny.17 mph55%29.92 "HgN/A
9:30 AM82 °FScattered clouds.17 mph58%29.92 "HgN/A
9:00 AM81 °FBroken clouds.17 mph58%29.92 "HgN/A
8:30 AM81 °FScattered clouds.15 mph62%29.92 "HgN/A
8:00 AM79 °FScattered clouds.15 mph65%29.92 "HgN/A
7:30 AM79 °FScattered clouds.15 mph65%29.92 "HgN/A
7:00 AM79 °FBroken clouds.14 mph65%29.92 "HgN/A
6:30 AM77 °FPassing clouds.13 mph69%29.89 "HgN/A
6:00 AM77 °FPassing clouds.12 mph74%29.89 "HgN/A
5:30 AM77 °FPassing clouds.12 mph69%29.89 "HgN/A
5:00 AM77 °FClear.13 mph69%29.86 "HgN/A
4:30 AM77 °FClear.14 mph69%29.86 "HgN/A
4:00 AM77 °FClear.15 mph69%29.86 "HgN/A
3:30 AM77 °FPassing clouds.15 mph74%29.86 "HgN/A
3:00 AM77 °FPartly cloudy.15 mph74%29.86 "HgN/A
2:30 AM79 °FPassing clouds.12 mph70%29.86 "HgN/A
2:00 AM79 °FPassing clouds.13 mph70%29.86 "HgN/A
1:30 AM79 °FClear.13 mph70%29.89 "HgN/A
1:00 AM79 °FPassing clouds.14 mph74%29.89 "HgN/A
12:30 AM79 °FPassing clouds.16 mph74%29.89 "HgN/A
12:00 AM79 °FMostly cloudy.14 mph74%29.92 "HgN/A
11:30 PM
Sat, Oct 22
79 °FPartly cloudy.16 mph70%29.92 "HgN/A
11:00 PM79 °FPartly cloudy.17 mph74%29.92 "HgN/A
10:30 PM79 °FMostly cloudy.15 mph70%29.92 "HgN/A
10:00 PM79 °FMostly cloudy.15 mph70%29.92 "HgN/A
9:30 PM79 °FMostly cloudy.17 mph74%29.92 "HgN/A
9:00 PM79 °FMostly cloudy.16 mph74%29.92 "HgN/A
8:30 PM79 °FPartly cloudy.15 mph70%29.92 "HgN/A
8:00 PM79 °FMostly cloudy.13 mph74%29.92 "HgN/A
Weather by CustomWeather, © 2016

See weather overviewHow to use our weather pages